Wind_Speed
8 8 8 8 7 6 5 5 5 5 5 6 6 6 6 6 6 6 4 4 4 3 3 3 4 4 6 7 6 8 11 14 17 20 22 25 27 28 30 33 34 36 38 39
8 7 7 7 7 6 5 4 5 5 5 5 5 5 5 5 5 4 3 2 2 2 1 1 3 5 7 10 11 12 14 17 20 22 24 26 27 29 31 33 34 35 37 39
7 7 7 6 6 5 5 4 4 4 4 4 4 3 2 3 3 4 3 1 1 2 3 5 7 9 12 13 14 16 18 19 22 25 27 29 30 31 32 33 34 35 37 38
6 6 5 5 5 4 4 3 3 3 3 2 3 3 2 2 3 4 4 3 4 5 6 8 10 13 15 17 18 20 22 23 24 26 28 30 32 33 33 34 34 35 37 38
5 5 5 5 4 4 3 3 2 1 1 1 1 3 3 4 5 6 7 6 7 9 11 12 14 16 18 19 21 23 24 25 26 28 30 32 33 34 35 35 35 36 38 38
4 4 3 3 2 1 1 1 2 1 1 2 3 4 5 5 7 8 10 10 11 13 15 16 18 20 22 23 24 25 27 29 30 32 33 34 35 36 37 38 38 39 39 39
5 4 3 2 1 1 1 1 1 2 3 4 5 6 6 8 10 11 13 14 15 16 17 19 20 22 24 25 26 28 30 32 34 35 35 35 36 37 39 39 40 40 40 40
7 6 5 4 3 3 4 4 4 4 5 6 6 8 9 10 12 14 15 16 18 19 20 21 22 23 25 27 28 30 32 33 34 35 36 37 37 38 39 40 41 41 41 41
8 8 7 7 7 6 7 7 7 8 8 9 10 10 12 13 15 16 18 19 20 21 22 24 25 27 28 29 31 33 34 34 35 35 36 37 39 40 40 41 41 41 40 40
11 10 10 9 9 9 10 10 10 11 11 12 13 14 15 16 17 18 20 21 22 24 25 27 28 29 31 32 34 35 35 35 35 36 37 38 39 40 40 40 41 40 40 41
14 14 13 13 13 12 13 13 13 13 14 14 15 16 17 18 19 20 22 23 25 26 27 29 30 31 33 34 35 35 36 36 36 37 38 38 38 39 39 39 40 40 40 41
17 17 17 16 16 16 16 15 15 16 16 17 17 18 19 20 21 23 24 26 27 28 29 30 32 33 34 35 35 35 36 36 38 39 39 39 38 38 38 38 38 38 39 39
19 20 19 19 19 18 18 18 18 18 19 19 20 20 21 22 24 25 26 27 28 30 31 32 33 35 35 35 35 36 37 38 39 40 39 38 38 37 36 36 37 37 37 37
21 22 22 21 21 21 21 20 20 21 21 22 22 23 24 25 26 26 27 29 30 32 33 34 35 36 36 36 36 37 37 38 39 39 38 37 36 36 35 35 34 33 33 34
23 23 23 23 23 23 23 23 23 23 24 24 24 25 26 26 27 28 29 31 32 34 35 36 37 37 37 37 37 37 38 38 38 37 35 34 34 33 33 33 32 32 31 31
24 24 24 25 25 25 25 25 25 25 26 26 26 27 27 28 28 29 31 33 34 35 36 37 37 37 38 37 37 37 38 37 36 35 33 31 31 31 31 30 29 30 30 29
26 26 26 26 27 27 27 27 28 28 28 28 28 29 29 29 30 31 32 34 35 36 37 38 38 38 38 37 37 37 37 36 34 32 31 30 29 29 29 28 28 28 28 27
28 28 28 28 28 29 29 29 30 30 30 30 30 30 31 31 32 33 34 36 37 38 38 38 38 38 38 37 36 36 35 34 32 31 30 29 29 29 28 27 27 26 26 26
29 30 29 29 29 30 30 30 31 31 31 32 32 33 33 33 33 34 35 37 38 39 39 39 39 38 37 36 35 34 33 32 31 30 29 28 28 28 27 26 25 24 24 25
31 31 31 31 31 31 32 32 32 33 33 33 34 34 34 35 35 36 37 38 38 39 39 39 38 38 36 34 33 32 31 30 30 29 28 28 27 26 25 24 23 23 23 23
32 32 32 32 32 32 33 33 33 34 34 34 35 35 35 36 36 37 38 38 39 39 39 38 37 36 35 33 31 31 30 30 29 28 27 26 25 25 24 24 23 22 22 21
34 34 34 34 34 34 34 34 34 34 35 35 36 36 36 37 37 38 38 39 38 38 38 37 36 35 33 32 31 31 30 29 28 27 26 25 24 24 23 23 22 22 21 21
35 36 36 35 35 35 35 35 35 35 35 35 36 36 37 37 37 38 39 38 38 38 37 36 35 34 32 31 31 30 30 29 28 26 26 25 24 24 23 23 22 22 22 22
36 36 36 36 37 37 36 36 36 36 36 36 36 36 36 36 37 38 38 38 38 37 37 35 34 33 32 31 31 31 29 28 27 26 26 25 25 24 24 23 22 22 22 22
36 37 37 37 37 37 36 36 36 36 36 36 36 36 36 36 37 37 37 37 37 37 36 35 34 33 32 31 31 31 30 28 27 27 26 26 25 24 23 23 22 23 23 23
36 36 36 37 37 37 37 36 36 36 36 37 36 37 37 37 37 37 37 37 37 36 35 34 33 33 32 31 30 30 29 28 28 27 26 25 24 24 24 24 23 23 23 23
35 36 36 36 37 37 37 37 36 37 37 37 37 37 37 37 37 37 37 36 36 35 34 33 32 31 30 30 30 29 28 28 27 27 26 25 25 25 25 25 24 24 24 24
Wind_Direction
118 114 112 120 120 119 117 110 104 100 93 93 99 91 81 75 73 77 90 80 84 100 117 156 190 207 221 230 238 249 257 258 256 263 268 267 266 267 268 264 262 261 261 263
118 117 118 120 123 123 119 114 110 106 102 100 109 102 84 71 67 65 80 86 90 117 138 220 246 247 251 252 254 262 267 269 268 270 273 272 272 273 272 267 264 264 265 265
125 121 121 119 117 120 119 112 106 98 86 84 90 88 72 55 45 36 35 8 324 308 272 271 269 270 269 267 267 271 273 274 274 274 275 275 277 276 273 270 268 268 269 269
132 126 125 115 108 107 104 107 111 103 86 67 60 44 39 21 1 355 343 319 307 300 293 286 278 276 277 277 277 278 279 279 279 278 278 278 278 277 275 273 271 270 271 273
138 133 127 123 112 104 99 90 89 84 63 28 355 357 356 348 344 339 332 315 302 297 295 292 288 283 282 282 282 282 283 284 282 281 280 280 280 277 275 273 272 272 273 275
159 155 148 140 126 101 77 78 49 18 354 343 328 330 333 335 333 331 328 319 310 303 300 297 293 289 288 287 286 286 287 286 285 283 283 281 280 278 277 276 274 274 275 275
199 198 193 190 218 288 307 319 323 325 326 329 329 328 327 326 328 325 321 318 312 307 304 302 299 297 294 292 291 290 290 290 289 287 285 283 282 280 278 278 278 278 277 276
222 230 238 243 259 274 287 296 297 299 304 311 318 320 319 319 320 319 318 317 315 311 307 305 304 303 302 300 298 296 295 294 292 289 287 285 282 280 279 279 278 278 278 276
236 241 247 253 262 269 276 285 291 294 297 301 307 311 313 312 312 313 314 316 317 315 311 307 306 305 304 303 301 299 297 297 296 295 292 288 285 282 281 280 279 279 278 277
246 248 251 256 263 268 274 280 285 291 295 298 300 302 305 308 309 311 313 313 314 314 312 310 308 307 305 304 303 301 299 297 297 296 295 292 288 285 282 281 280 279 278 278
251 252 253 258 264 269 274 279 282 286 292 296 298 300 302 305 307 308 309 310 311 312 311 310 309 308 307 306 304 303 301 299 299 298 297 296 293 288 284 282 281 280 279 279
254 255 257 261 265 269 273 277 280 285 289 293 296 298 300 302 305 306 308 309 310 311 311 310 309 309 308 307 304 303 302 301 300 300 299 297 294 292 287 284 282 282 282 280
255 257 259 261 265 268 271 274 279 283 287 290 294 297 298 300 303 305 307 308 309 310 311 311 310 309 309 307 305 304 303 303 303 302 300 298 295 292 289 287 285 284 283 282
256 257 259 262 264 267 269 272 277 281 286 290 293 296 298 300 302 303 305 307 308 309 310 311 311 310 308 307 305 305 305 305 305 303 301 299 297 295 292 289 287 285 284 282
257 259 261 264 266 268 270 273 276 281 284 288 292 294 297 299 302 303 305 306 308 309 310 311 311 311 309 307 306 306 306 307 307 305 302 301 299 297 295 293 290 287 285 283
261 263 265 267 269 270 271 273 276 280 283 286 290 293 296 298 301 303 305 307 308 309 310 311 311 311 310 308 307 307 307 308 307 306 304 303 303 301 299 296 292 290 287 285
263 265 267 269 271 272 273 274 276 279 282 286 289 292 295 298 300 302 304 306 307 308 309 310 311 311 310 308 307 307 308 307 307 306 305 304 303 303 301 297 294 291 288 286
263 265 267 270 272 273 274 275 278 280 282 285 289 292 294 297 299 302 304 306 307 308 309 309 310 310 310 308 307 307 308 307 305 305 305 304 304 305 303 298 294 291 289 287
263 265 267 270 273 274 274 276 278 281 283 286 289 291 294 297 300 302 304 306 307 308 308 308 308 309 309 308 307 307 308 307 306 304 303 303 305 306 305 301 296 292 291 289
265 265 267 270 272 274 275 276 278 281 283 286 289 291 293 296 299 301 303 305 306 307 308 307 306 308 307 306 305 306 307 307 305 304 303 303 303 305 306 303 299 295 294 292
266 267 269 270 272 274 275 277 278 281 283 286 288 290 293 295 298 301 303 304 305 306 307 306 305 306 306 304 303 305 305 305 304 303 302 302 302 304 305 304 301 298 297 295
266 268 269 271 272 273 275 278 279 281 283 285 287 290 292 295 298 300 302 303 304 305 306 305 305 304 304 302 302 302 303 303 302 301 300 300 301 302 302 302 300 298 297 295
268 269 270 271 272 273 275 278 281 283 284 286 287 289 292 295 297 299 301 303 304 304 304 304 304 303 302 301 301 302 302 301 299 298 298 297 297 299 300 299 297 296 294 293
271 271 271 272 272 273 275 278 280 283 285 286 288 290 292 294 297 299 300 302 303 303 303 302 302 302 301 300 301 300 299 298 297 296 295 294 295 296 297 297 296 295 293 293
273 273 272 272 273 274 275 277 280 283 284 286 288 290 292 294 297 298 300 301 302 302 302 301 301 301 301 299 299 298 297 295 294 293 293 292 292 293 294 295 296 295 293 292
274 273 272 271 272 274 276 278 280 281 284 285 287 289 292 294 296 298 299 300 300 300 301 300 300 300 299 298 298 297 295 294 293 293 292 290 289 290 292 294 294 294 294 293
274 274 273 272 273 274 277 279 280 281 283 284 287 289 291 294 296 297 298 299 300 299 300 300 300 299 298 297 297 296 295 294 293 292 290 289 287 287 290 291 292 292 292 292
Height
5637 5637 5637 5637 5637 5636 5636 5636 5636 5636 5636 5636 5635 5634 5634 5633 5633 5632 5632 5632 5633 5633 5634 5634 5635 5636 5637 5638 5640 5642 5643 5645 5646 5647 5647 5647 5647 5647 5646 5646 5646 5646 5645 5645
5639 5639 5638 5638 5638 5638 5638 5637 5637 5637 5637 5636 5635 5634 5634 5633 5633 5633 5633 5633 5633 5633 5634 5634 5634 5635 5636 5637 5638 5639 5639 5640 5640 5640 5640 5639 5639 5638 5637 5636 5636 5635 5634 5634
5640 5640 5640 5640 5639 5639 5638 5638 5638 5637 5638 5636 5635 5634 5634 5633 5633 5632 5632 5632 5632 5633 5633 5633 5634 5634 5634 5634 5634 5634 5634 5634 5633 5632 5632 5631 5630 5628 5627 5626 5625 5624 5623 5622
5641 5641 5641 5643 5640 5639 5639 5638 5638 5637 5636 5636 5635 5634 5633 5633 5632 5631 5631 5630 5631 5631 5631 5631 5631 5631 5630 5630 5629 5629 5628 5627 5626 5625 5623 5622 5620 5618 5616 5615 5613 5612 5611 5610
5641 5641 5641 5642 5641 5640 5639 5639 5638 5637 5636 5635 5634 5634 5633 5632 5631 5630 5630 5629 5629 5628 5628 5628 5627 5626 5625 5624 5623 5622 5620 5619 5617 5616 5614 5611 5609 5606 5604 5603 5601 5600 5598 5597
5641 5641 5641 5642 5641 5639 5640 5639 5638 5636 5635 5635 5634 5634 5633 5631 5630 5629 5628 5626 5626 5625 5624 5623 5622 5620 5619 5618 5616 5614 5612 5610 5608 5605 5602 5598 5596 5594 5592 5590 5588 5587 5585 5583
5640 5640 5641 5641 5640 5639 5640 5640 5637 5636 5634 5633 5632 5632 5631 5629 5627 5626 5624 5623 5621 5620 5619 5617 5616 5614 5612 5610 5607 5605 5602 5599 5595 5592 5589 5586 5583 5580 5578 5576 5574 5572 5571 5569
5639 5639 5641 5639 5638 5638 5638 5636 5635 5634 5633 5632 5631 5629 5628 5626 5624 5623 5621 5619 5617 5615 5613 5611 5609 5606 5603 5600 5597 5594 5591 5587 5583 5579 5576 5573 5569 5566 5564 5561 5559 5557 5555 5553
5638 5639 5638 5636 5636 5636 5634 5633 5632 5631 5630 5629 5628 5626 5625 5623 5621 5619 5617 5614 5612 5609 5607 5604 5601 5598 5594 5591 5587 5583 5579 5575 5571 5567 5563 5559 5555 5552 5549 5546 5543 5541 5539 5538
5634 5634 5634 5633 5632 5632 5631 5630 5629 5628 5627 5625 5624 5622 5620 5619 5616 5614 5612 5609 5607 5604 5600 5597 5593 5590 5586 5581 5577 5572 5567 5563 5559 5555 5551 5546 5541 5537 5534 5531 5528 5526 5525 5523
5629 5630 5629 5629 5628 5627 5626 5625 5624 5623 5622 5621 5619 5618 5616 5613 5611 5609 5606 5603 5600 5597 5593 5589 5585 5581 5576 5571 5566 5561 5556 5552 5548 5543 5538 5533 5528 5523 5519 5516 5513 5512 5510 5508
5624 5624 5624 5624 5623 5622 5621 5620 5619 5618 5617 5615 5614 5612 5610 5608 5605 5603 5600 5596 5593 5589 5585 5581 5576 5572 5566 5561 5556 5551 5546 5541 5536 5531 5526 5521 5516 5512 5507 5503 5500 5498 5496 5494
5617 5617 5617 5617 5616 5616 5615 5614 5613 5612 5611 5609 5607 5605 5603 5601 5598 5596 5592 5589 5585 5581 5577 5572 5567 5562 5556 5550 5545 5540 5535 5530 5524 5519 5513 5508 5504 5500 5496 5492 5488 5485 5483 5481
5610 5610 5610 5610 5609 5609 5608 5607 5606 5605 5603 5602 5600 5598 5596 5593 5591 5588 5584 5581 5577 5572 5568 5562 5557 5552 5546 5540 5535 5530 5524 5519 5513 5507 5502 5497 5492 5488 5484 5481 5478 5475 5473 5471
5603 5603 5603 5602 5602 5601 5600 5600 5599 5598 5596 5594 5593 5590 5588 5585 5582 5579 5576 5572 5567 5563 5558 5553 5547 5542 5536 5530 5525 5519 5514 5508 5502 5496 5491 5486 5482 5478 5474 5471 5468 5466 5464 5461
5596 5595 5595 5595 5594 5593 5592 5592 5591 5590 5588 5586 5585 5582 5580 5577 5574 5571 5567 5563 5558 5554 5549 5543 5538 5532 5526 5520 5514 5509 5503 5497 5492 5487 5482 5478 5474 5470 5466 5463 5460 5457 5455 5453
5588 5588 5587 5587 5586 5585 5584 5583 5582 5581 5579 5578 5576 5574 5571 5568 5565 5562 5558 5553 5549 5544 5539 5533 5528 5522 5516 5510 5504 5499 5493 5488 5483 5478 5474 5470 5466 5463 5459 5455 5452 5449 5447 5445
5579 5579 5579 5578 5577 5577 5576 5574 5573 5572 5570 5569 5567 5564 5562 5559 5556 5552 5548 5544 5539 5534 5529 5523 5517 5512 5506 5500 5495 5490 5485 5479 5475 5471 5467 5463 5459 5456 5452 5448 5445 5442 5440 5437
5570 5570 5570 5569 5568 5567 5566 5565 5564 5562 5561 5559 5557 5555 5552 5549 5546 5542 5538 5533 5528 5523 5518 5512 5507 5501 5496 5491 5485 5481 5476 5472 5467 5463 5460 5456 5453 5449 5445 5442 5439 5436 5434 5432
5561 5560 5560 5559 5558 5557 5556 5555 5554 5553 5551 5549 5547 5544 5542 5539 5536 5532 5527 5523 5518 5513 5508 5502 5497 5491 5486 5481 5477 5473 5468 5464 5460 5456 5453 5449 5446 5443 5439 5436 5434 5431 5429 5426
5551 5551 5550 5549 5548 5547 5546 5545 5543 5542 5540 5538 5536 5534 5531 5528 5524 5521 5516 5512 5508 5502 5497 5491 5486 5482 5477 5472 5468 5464 5461 5457 5453 5449 5446 5443 5440 5437 5434 5431 5428 5426 5423 5421
5541 5540 5539 5538 5538 5537 5535 5534 5533 5531 5529 5527 5525 5522 5520 5517 5513 5509 5505 5501 5496 5491 5486 5481 5476 5472 5468 5463 5460 5456 5453 5449 5446 5442 5439 5436 5434 5431 5428 5425 5423 5420 5418 5416
5529 5529 5528 5527 5526 5525 5524 5523 5521 5520 5518 5516 5513 5511 5508 5505 5501 5498 5494 5489 5485 5480 5475 5471 5466 5462 5458 5454 5451 5448 5445 5441 5438 5435 5432 5430 5427 5425 5422 5420 5417 5415 5413 5411
5518 5517 5516 5515 5514 5514 5513 5511 5510 5508 5506 5504 5502 5499 5496 5493 5490 5486 5482 5478 5473 5469 5465 5461 5457 5453 5449 5445 5442 5439 5436 5433 5430 5428 5425 5423 5421 5418 5416 5414 5411 5409 5407 5405
5505 5505 5504 5503 5502 5501 5500 5499 5498 5496 5494 5492 5490 5487 5485 5482 5478 5475 5470 5466 5462 5458 5454 5451 5447 5443 5440 5436 5433 5430 5428 5425 5422 5420 5418 5416 5414 5412 5410 5407 5405 5403 5401 5398
5493 5492 5491 5491 5490 5489 5488 5487 5486 5484 5482 5480 5478 5476 5473 5470 5467 5463 5460 5456 5452 5448 5444 5441 5437 5434 5431 5427 5425 5422 5419 5417 5414 5412 5410 5408 5406 5404 5402 5400 5398 5396 5394 5392
5481 5480 5479 5478 5477 5476 5476 5475 5473 5472 5470 5469 5467 5464 5461 5458 5455 5452 5448 5445 5441 5438 5434 5431 5428 5425 5422 5419 5416 5413 5411 5408 5406 5404 5402 5400 5398 5397 5395 5393 5391 5389 5386 5384